• In Austria
  • List of Countries
  • For 7 days
  • Water Temperature
  • Satellite Maps
  • Weather Map
  • News
  • Weather Widgets
  • user-avatar
    Login

    Hourly Weather Zhvikovo

    Today, 15 October, Monday

    Time Temperature Precipitation Wind Pressure Humidity
    00:00 +9°C° 0 mm 2 mps 753 mmHg 86%
    01:00 +9°C° 0 mm 2 mps 753 mmHg 85%
    02:00 +9°C° 0 mm 1 mps 753 mmHg 85%
    03:00 +9°C° 0 mm 1 mps 753 mmHg 84%
    04:00 +7°C° 0 mm 2 mps 752 mmHg 83%
    05:00 +7°C° 0 mm 2 mps 752 mmHg 82%
    06:00 +7°C° 0 mm 2 mps 752 mmHg 80%
    07:00 +8°C° 0 mm 2 mps 752 mmHg 77%
    08:00 +8°C° 0 mm 2 mps 753 mmHg 71%
    09:00 +10°C° 0 mm 2 mps 753 mmHg 65%
    10:00 +12°C° 0 mm 2 mps 753 mmHg 59%
    11:00 +14°C° 0 mm 2 mps 753 mmHg 53%
    12:00 +15°C° 0 mm 2 mps 753 mmHg 52%
    13:00 +16°C° 0 mm 2 mps 753 mmHg 50%
    14:00 +16°C° 0 mm 2 mps 752 mmHg 49%
    15:00 +15°C° 0 mm 2 mps 752 mmHg 54%
    16:00 +14°C° 0 mm 2 mps 752 mmHg 59%
    17:00 +12°C° 0 mm 2 mps 752 mmHg 63%
    18:00 +12°C° 0 mm 2 mps 752 mmHg 64%
    19:00 +10°C° 0 mm 2 mps 752 mmHg 65%
    20:00 +9°C° 0 mm 2 mps 751 mmHg 65%
    21:00 +9°C° 0 mm 2 mps 751 mmHg 66%
    22:00 +9°C° 0 mm 2 mps 751 mmHg 67%
    23:00 +8°C° 0 mm 2 mps 751 mmHg 68%

    Tomorrow, 16 October, Tuesday

    Time Temperature Precipitation Wind Pressure Humidity
    00:00 +8°C° 0 mm 2 mps 751 mmHg 68%
    01:00 +8°C° 0 mm 2 mps 751 mmHg 68%
    02:00 +7°C° 0 mm 2 mps 751 mmHg 69%
    03:00 +7°C° 0 mm 2 mps 751 mmHg 69%
    04:00 +7°C° 0 mm 2 mps 751 mmHg 70%
    05:00 +7°C° 0 mm 2 mps 751 mmHg 70%
    06:00 +7°C° 0 mm 2 mps 751 mmHg 69%
    07:00 +7°C° 0 mm 2 mps 751 mmHg 69%
    08:00 +8°C° 0 mm 2 mps 751 mmHg 68%
    09:00 +10°C° 0 mm 3 mps 751 mmHg 63%
    10:00 +11°C° 0 mm 3 mps 751 mmHg 58%
    11:00 +13°C° 0 mm 3 mps 751 mmHg 53%
    12:00 +14°C° 0 mm 3 mps 751 mmHg 53%
    13:00 +16°C° 0 mm 3 mps 751 mmHg 52%
    14:00 +17°C° 0 mm 3 mps 750 mmHg 51%
    15:00 +14°C° 0 mm 3 mps 750 mmHg 56%
    16:00 +14°C° 0 mm 2 mps 750 mmHg 62%
    17:00 +13°C° 0 mm 2 mps 750 mmHg 67%
    18:00 +12°C° 0 mm 2 mps 750 mmHg 69%
    19:00 +12°C° 0 mm 2 mps 750 mmHg 72%
    20:00 +10°C° 0 mm 2 mps 750 mmHg 74%
    21:00 +10°C° 0 mm 2 mps 750 mmHg 76%
    22:00 +10°C° 0 mm 2 mps 750 mmHg 78%
    23:00 +9°C° 0 mm 2 mps 750 mmHg 79%

    Day after tomorrow, 17 October, Wednesday

    Time Temperature Precipitation Wind Pressure Humidity
    00:00 +9°C° 0 mm 2 mps 750 mmHg 81%
    01:00 +9°C° 0 mm 2 mps 750 mmHg 83%
    02:00 +10°C° 0 mm 1 mps 750 mmHg 84%
    03:00 +10°C° 0 mm 1 mps 750 mmHg 85%
    04:00 +9°C° 0 mm 1 mps 750 mmHg 86%
    05:00 +9°C° 0 mm 1 mps 750 mmHg 87%
    06:00 +10°C° 0 mm 1 mps 750 mmHg 86%
    07:00 +9°C° 0 mm 2 mps 750 mmHg 85%
    08:00 +9°C° 0 mm 2 mps 750 mmHg 84%
    09:00 +12°C° 0 mm 2 mps 750 mmHg 78%
    10:00 +14°C° 0 mm 2 mps 750 mmHg 72%
    11:00 +16°C° 0 mm 2 mps 750 mmHg 65%
    12:00 +17°C° 0 mm 2 mps 750 mmHg 63%
    13:00 +17°C° 0 mm 2 mps 750 mmHg 61%
    14:00 +18°C° 0 mm 2 mps 750 mmHg 59%
    15:00 +17°C° 0 mm 2 mps 750 mmHg 65%
    16:00 +15°C° 0 mm 1 mps 750 mmHg 72%
    17:00 +14°C° 0 mm 1 mps 750 mmHg 78%
    18:00 +13°C° 0 mm 1 mps 750 mmHg 80%
    19:00 +13°C° 0 mm 1 mps 750 mmHg 82%
    20:00 +12°C° 0 mm 1 mps 750 mmHg 83%
    21:00 +12°C° 0 mm 1 mps 750 mmHg 84%
    22:00 +12°C° 0 mm 1 mps 750 mmHg 85%
    23:00 +11°C° 0 mm 1 mps 750 mmHg 86%

    18 October, Thursday

    Time Temperature Precipitation Wind Pressure Humidity
    00:00 +11°C° 0 mm 1 mps 750 mmHg 87%
    01:00 +11°C° 0 mm 1 mps 750 mmHg 87%
    02:00 +11°C° 0 mm 1 mps 750 mmHg 88%
    03:00 +11°C° 0 mm 1 mps 750 mmHg 89%
    04:00 +10°C° 0 mm 1 mps 750 mmHg 89%
    05:00 +10°C° 0 mm 1 mps 749 mmHg 90%
    06:00 +11°C° 0 mm 1 mps 749 mmHg 89%
    07:00 +11°C° 0 mm 1 mps 749 mmHg 89%
    08:00 +11°C° 0 mm 1 mps 749 mmHg 88%
    09:00 +13°C° 0 mm 2 mps 749 mmHg 82%
    10:00 +15°C° 0 mm 2 mps 749 mmHg 75%
    11:00 +17°C° 0 mm 2 mps 749 mmHg 69%
    12:00 +17°C° 0 mm 2 mps 749 mmHg 67%
    13:00 +18°C° 0 mm 2 mps 749 mmHg 64%
    14:00 +19°C° 0 mm 2 mps 748 mmHg 62%
    15:00 +17°C° 0 mm 2 mps 748 mmHg 68%
    16:00 +16°C° 0 mm 2 mps 748 mmHg 74%
    17:00 +15°C° 0 mm 1 mps 747 mmHg 80%
    18:00 +14°C° 0 mm 1 mps 747 mmHg 82%
    19:00 +14°C° 0 mm 2 mps 747 mmHg 84%
    20:00 +13°C° 0 mm 2 mps 747 mmHg 85%
    21:00 +13°C° 0 mm 2 mps 747 mmHg 86%
    22:00 +13°C° 0 mm 2 mps 747 mmHg 87%
    23:00 +12°C° 0 mm 2 mps 747 mmHg 88%

    19 October, Friday

    Time Temperature Precipitation Wind Pressure Humidity
    00:00 +12°C° 0 mm 2 mps 747 mmHg 89%
    01:00 +12°C° 0 mm 1 mps 747 mmHg 89%
    02:00 +11°C° 0 mm 1 mps 747 mmHg 90%
    03:00 +11°C° 0 mm 1 mps 747 mmHg 91%
    04:00 +11°C° 0 mm 1 mps 746 mmHg 91%
    05:00 +11°C° 0 mm 1 mps 746 mmHg 91%
    06:00 +11°C° 0 mm 1 mps 746 mmHg 91%
    07:00 +11°C° 0 mm 1 mps 746 mmHg 90%
    08:00 +11°C° 0 mm 1 mps 746 mmHg 90%
    09:00 +13°C° 0 mm 1 mps 746 mmHg 84%
    10:00 +14°C° 0 mm 1 mps 746 mmHg 78%
    11:00 +16°C° 0 mm 1 mps 746 mmHg 72%
    12:00 +18°C° 0 mm 1 mps 746 mmHg 69%
    13:00 +18°C° 0 mm 1 mps 745 mmHg 67%
    14:00 +19°C° 0 mm 1 mps 745 mmHg 65%
    15:00 +16°C° 0 mm 1 mps 745 mmHg 71%
    16:00 +14°C° 0 mm 0 mps 745 mmHg 76%
    17:00 +13°C° 0 mm 0 mps 744 mmHg 82%
    18:00 +12°C° 0 mm 0 mps 744 mmHg 84%
    19:00 +12°C° 0 mm 0 mps 744 mmHg 85%
    20:00 +12°C° 0 mm 0 mps 744 mmHg 86%
    21:00 +11°C° 0 mm 0 mps 744 mmHg 87%
    22:00 +11°C° 0 mm 0 mps 744 mmHg 88%
    23:00 +11°C° 0 mm 0 mps 744 mmHg 89%

    20 October, Saturday

    Time Temperature Precipitation Wind Pressure Humidity
    00:00 +10°C° 0 mm 0 mps 744 mmHg 89%
    01:00 +10°C° 0 mm 0 mps 744 mmHg 90%
    02:00 +10°C° 0 mm 0 mps 744 mmHg 91%
    03:00 +9°C° 0 mm 0 mps 744 mmHg 91%
    04:00 +9°C° 0 mm 0 mps 744 mmHg 92%
    05:00 +9°C° 0 mm 0 mps 744 mmHg 93%
    06:00 +9°C° 0 mm 0 mps 744 mmHg 93%
    07:00 +10°C° 0 mm 1 mps 744 mmHg 93%
    08:00 +11°C° 0 mm 1 mps 744 mmHg 93%
    09:00 +12°C° 0 mm 1 mps 744 mmHg 88%
    10:00 +13°C° 0 mm 1 mps 744 mmHg 83%
    11:00 +14°C° 0 mm 1 mps 744 mmHg 78%
    12:00 +15°C° 0 mm 1 mps 744 mmHg 76%
    13:00 +15°C° 0 mm 1 mps 744 mmHg 75%
    14:00 +15°C° 0 mm 1 mps 743 mmHg 73%
    15:00 +15°C° 0 mm 1 mps 743 mmHg 77%
    16:00 +14°C° 0 mm 1 mps 743 mmHg 81%
    17:00 +13°C° 0 mm 1 mps 743 mmHg 85%
    18:00 +13°C° 0 mm 1 mps 743 mmHg 87%
    19:00 +12°C° 0 mm 1 mps 743 mmHg 89%
    20:00 +12°C° 0 mm 1 mps 743 mmHg 91%
    21:00 +12°C° 0 mm 1 mps 743 mmHg 92%
    22:00 +11°C° 0 mm 1 mps 743 mmHg 92%
    23:00 +11°C° 0 mm 1 mps 743 mmHg 93%
    Show more